Location: Agadir
(31.1222°N, 8.7812°W)
Time: 04:12:24
(UTC+00:00)

Daily predictions for brighter satellites

Satellite Brightness Start Highest point End
(mag) Time Altitude Azimuth Time Altitude Azimuth Time Altitude Azimuth
Centaur D-1A AC-31 3.0 04:49:30 27° SSE 04:49:30 27° SSE 04:53:11 10° ESE
CZ-3 R/B 3.9 04:40:48 10° SW 05:06:04 44° SSE 05:13:24 10° E
Cosmos 836 Rocket 4.4 05:15:07 73° N 05:15:36 84° ENE 05:20:47 10° SSE
Cosmos 1328 Rocket 4.4 05:16:03 31° NNE 05:17:42 48° E 05:21:51 10° SSE
Cosmos 1833 4.5 05:22:59 27° N 05:26:12 66° ENE 05:31:54 10° SSE
ATLAS 3B R/B 2.4 05:20:12 10° SSW 05:26:39 84° WNW 05:33:22 10° NNE
Meteor 2-6 Rocket 4.2 05:24:13 19° N 05:28:07 77° E 05:33:33 10° SSE
BREEZE-M DEB (TANK) 4.2 05:26:09 33° NNW 05:28:34 58° NE 05:48:14 10° SE
Cosmos 1340 Rocket 4.3 05:27:07 10° SSE 05:30:45 36° E 05:34:25 10° NNE
Cosmos 1777 Rocket 3.8 05:26:02 10° SSW 05:31:14 85° WNW 05:36:29 10° NNE
COSMO-SKYMED 1 3.9 05:28:24 10° SE 05:32:25 38° ENE 05:36:26 10° N
CZ-2C R/B 3.5 05:28:58 10° SSE 05:34:12 49° ENE 05:39:22 10° N
IUS-1 SRM-2 3.5 05:35:59 34° SW 05:37:03 41° S 05:46:50 10° ESE
Cosmos 1408 Rocket 3.4 05:32:56 10° S 05:37:13 86° E 05:41:32 10° N
SL-8 R/B 4.5 05:36:04 33° N 05:37:35 44° NE 05:42:08 10° ESE
SL-27 R/B 4.1 05:36:25 19° NNE 05:38:18 33° ENE 05:41:28 10° SE
H-2A R/B 2.5 05:39:24 74° NW 05:39:36 77° WNW 05:43:24 10° SSW
Lacrosse 5 3.2 05:39:10 10° S 05:43:53 40° ESE 05:48:38 10° NE
SJ-12 3.8 05:41:50 10° N 05:45:56 64° WNW 05:49:59 10° SSW
Cosmos 1743 Rocket 4.1 05:45:13 10° S 05:49:30 58° E 05:53:47 10° NNE
SJ 16-02 1.4 05:47:08 10° SSW 05:51:24 52° WNW 05:55:40 10° N
Meteor 1-31 Rocket 2.6 05:50:37 10° N 05:54:31 72° WNW 05:58:25 10° SSW
Envisat 3.0 05:51:33 10° N 05:56:30 54° WNW 06:01:26 10° SSW
Meteor 2-15 4.4 05:51:01 10° N 05:57:07 89° E 06:03:10 10° S
Cosmos 2279 Rocket 4.0 05:52:40 10° NNW 05:58:41 56° W 06:04:42 10° SSW
SL-4 R/B 2.6 05:59:54 30° NNW 05:59:54 30° NNW 06:02:37 10° NNE
Nadezhda 4 Rocket 3.9 05:53:30 10° S 05:59:38 80° W 06:05:53 10° N
CZ-2C R/B 4.0 05:57:25 10° NNE 06:02:22 50° E 06:07:32 10° S
Meteor 2-19 Rocket 4.4 05:59:01 10° SSW 06:04:58 62° W 06:10:58 10° N
Cosmos 1515 Rocket 3.4 06:01:03 10° N 06:05:24 85° W 06:09:43 10° S
Meteor 1-10 Rocket 4.1 06:01:50 10° NNW 06:07:19 63° W 06:12:49 10° S
Cosmos 1602 3.9 06:10:26 10° S 06:14:11 72° E 06:17:59 10° N
Sich 1 3.9 06:10:39 10° SSE 06:14:47 51° E 06:18:55 10° NNE
Cosmos 1500 Rocket 3.6 06:11:39 10° SSW 06:16:03 59° W 06:20:27 10° N
OAO 2 Rocket 3.3 06:13:35 19° W 06:17:22 73° NNW 06:22:30 10° ENE
Meteor 1-20 Rocket 4.2 06:14:43 10° S 06:20:16 86° W 06:25:58 10° N
SKYMED 2 3.7 06:16:10 10° S 06:20:24 52° W 06:24:38 10° NNW
Cosmos 1092 Rocket 4.1 06:14:23 10° S 06:20:38 85° E 06:26:58 10° N
Cosmos 1500 4.1 06:17:59 10° S 06:21:41 52° E 06:25:22 10° NNE
Meteor PRIRODA 3.7 06:18:35 10° NNE 06:22:13 81° ESE 06:25:51 10° S
COSMOS 2487 3.2 06:22:18 10° N 06:25:33 50° ENE 06:28:47 10° SSE
NOAA 11 4.1 06:21:10 10° N 06:26:37 69° WNW 06:32:04 10° SSW
H-2A R/B 3.9 06:24:15 10° SE 06:28:00 31° ENE 06:31:51 10° N
Cosmos 1805 Rocket 3.5 06:24:24 10° S 06:28:46 77° W 06:33:09 10° N
FALCON 9 R/B 3.8 06:12:01 16° WNW 06:31:41 84° SSW 06:37:52 10° ESE
Cosmos 44 4.0 06:30:19 10° SSW 06:35:39 67° ESE 06:40:55 10° NNE
CZ-4C R/B 2.7 06:32:39 10° S 06:35:43 59° W 06:38:47 10° NNW
ASTRO E2 3.0 06:31:58 10° WSW 06:35:54 65° SSE 06:39:49 10° E
Cosmos 1515 3.6 06:37:19 10° N 06:41:06 81° W 06:44:54 10° S
DELTA 2 R/B (1) 4.3 06:40:35 10° WNW 06:45:47 44° NNE 06:51:04 10° E
NOSS 2 (A) 4.1 06:47:12 10° NW 06:49:36 54° WSW 06:51:54 10° SSE
Cosmos 1666 3.2 06:46:34 10° S 06:50:18 64° E 06:54:02 10° NNE
NOSS 2-3 (E) 4.3 06:49:21 10° SSW 06:53:10 53° ESE 06:57:09 10° NE
AQUARIUS 4.2 06:55:22 10° NNE 06:59:52 89° WNW 07:04:21 10° SSW
